FW0647 Weather Reports


time (UTC)temp
F
wind
direction
speed
knots
gust
knots
rain 1hr
in
rain 24hr
in
rain mn
in
humidity
%
barometer
mb
20260906230017 101 154 0.0 0.0 0.00 0.00 0.00 41 1014.0
20260906224517 101 360 0.0 0.9 0.00 0.00 0.00 40 1014.1
20260906223015 100 360 0.0 0.0 0.00 0.00 0.00 42 1014.0
20260906221514 102 360 0.0 0.0 0.00 0.00 0.00 41 1014.3
20260906220017 102 360 0.0 0.0 0.00 0.00 0.00 41 1014.3
20260906214511 101 360 0.0 0.9 0.00 0.00 0.00 40 1014.5
20260906213011 102 360 0.0 0.0 0.00 0.00 0.00 41 1014.5
20260906211508 103 360 0.0 0.0 0.00 0.00 0.00 40 1014.8
20260906210005 99 360 0.0 0.9 0.00 0.00 0.00 43 1015.1
20260906204505 100 360 1.7 5.2 0.00 0.00 0.00 42 1015.1
20260906203003 102 360 0.0 0.0 0.00 0.00 0.00 42 1015.3
20260906201501 102 360 0.0 0.9 0.00 0.00 0.00 41 1015.4
20260906200108 101 360 0.0 0.0 0.00 0.00 0.00 44 1015.5
20260906194556 99 360 0.0 0.9 0.00 0.00 0.00 45 1015.7
20260906193055 100 360 0.0 0.9 0.00 0.00 0.00 45 1015.8
20260906191551 100 360 0.0 0.9 0.00 0.00 0.00 45 1016.0
20260906190053 99 360 0.0 0.0 0.00 0.00 0.00 46 1016.2
20260906184549 98 360 0.0 0.0 0.00 0.00 0.00 47 1016.3
20260906183048 97 360 0.0 0.0 0.00 0.00 0.00 48 1016.5
20260906181546 96 360 0.0 0.0 0.00 0.00 0.00 49 1016.8
20260906180040 96 360 0.0 0.0 0.00 0.00 0.00 51 1017.0
20260906174536 95 360 0.0 0.0 0.00 0.00 0.00 51 1017.2
20260906173031 94 360 0.0 0.9 0.00 0.00 0.00 53 1017.4
20260906171527 93 360 0.0 1.7 0.00 0.00 0.00 54 1017.6
20260906170024 92 360 0.0 0.0 0.00 0.00 0.00 56 1017.8
20260906164533 91 360 0.0 0.0 0.00 0.00 0.00 58 1017.9
20260906163023 90 360 0.0 0.9 0.00 0.00 0.00 59 1018.0
20260906161515 89 360 0.0 0.0 0.00 0.00 0.00 62 1018.1
20260906160013 89 360 0.0 0.9 0.00 0.00 0.00 65 1018.1
20260906154510 87 119 0.0 0.9 0.00 0.00 0.00 66 1018.2
20260906153013 87 360 0.0 0.0 0.00 0.00 0.00 68 1018.1
20260906151504 86 360 0.0 0.0 0.00 0.00 0.00 70 1018.0
20260906150003 85 360 0.0 0.0 0.00 0.00 0.00 71 1017.9
20260906144501 84 360 0.0 0.0 0.00 0.00 0.00 72 1017.7
20260906143006 83 360 0.0 0.0 0.00 0.00 0.00 74 1017.7
20260906141616 83 360 0.0 0.0 0.00 0.00 0.00 74 1017.9
20260906140107 82 360 0.0 0.0 0.00 0.00 0.00 75 1017.9
20260906134615 82 360 0.0 0.0 0.00 0.00 0.00 76 1017.6
20260906133058 81 360 0.0 0.0 0.00 0.00 0.00 77 1017.5
20260906131556 81 360 0.0 0.0 0.00 0.00 0.00 77 1017.7
20260906130125 80 360 0.0 0.0 0.00 0.00 0.00 78 1017.7
20260906124602 80 360 0.0 0.0 0.00 0.00 0.00 78 1017.7
20260906123052 80 360 0.0 0.0 0.00 0.00 0.00 78 1017.5
20260906121602 80 360 0.0 0.0 0.00 0.00 0.00 78 1017.3
20260906120059 80 360 0.0 0.0 0.00 0.00 0.00 78 1017.0
20260906114546 80 360 0.0 0.0 0.00 0.00 0.00 78 1016.9
20260906113051 80 360 0.0 0.0 0.00 0.00 0.00 76 1016.7
20260906111543 81 360 0.0 0.0 0.00 0.00 0.00 76 1016.6
20260906110041 81 360 0.0 0.0 0.00 0.00 0.00 76 1016.5
20260906104540 81 360 0.0 0.0 0.00 0.00 0.00 76 1016.5
20260906103050 81 360 0.0 0.0 0.00 0.00 0.00 75 1016.3
20260906101539 81 360 0.0 0.0 0.00 0.00 0.00 75 1016.2
20260906100038 81 360 0.0 0.0 0.00 0.00 0.00 75 1016.0
20260906094536 81 360 0.0 0.0 0.00 0.00 0.00 74 1015.9
20260906093042 82 360 0.0 0.0 0.00 0.00 0.00 73 1015.8
20260906091539 82 360 0.0 0.0 0.00 0.00 0.00 73 1015.7
20260906090034 82 360 0.0 0.9 0.00 0.00 0.00 74 1015.6
20260906084533 82 360 0.0 0.9 0.00 0.00 0.00 74 1015.7
20260906083031 82 360 0.0 0.0 0.00 0.00 0.00 73 1015.7
20260906081529 83 360 0.0 0.0 0.00 0.00 0.00 72 1015.7
20260906080030 83 360 0.0 0.9 0.00 0.00 0.00 72 1015.8
20260906074528 83 360 0.0 0.0 0.00 0.00 0.00 72 1016.1
20260906073025 83 360 0.0 0.0 0.00 0.00 0.00 72 1016.0
20260906071524 83 360 0.0 0.9 0.00 0.00 0.00 72 1015.8
20260906070022 83 360 0.0 0.0 0.00 0.00 0.00 71 1015.9
20260906064532 84 360 0.0 1.7 0.00 0.00 0.00 70 1016.0
20260906063019 84 360 0.0 0.0 0.00 0.00 0.00 70 1016.3
20260906061523 84 360 0.0 1.7 0.00 0.00 0.00 69 1016.3
20260906060014 85 360 0.0 0.9 0.00 0.00 0.00 69 1016.2
20260906054525 85 360 0.0 0.0 0.00 0.00 0.00 68 1016.3
20260906053013 85 360 0.0 0.0 0.00 0.00 0.00 69 1016.3
20260906051511 85 360 0.0 0.0 0.00 0.00 0.00 70 1016.4
20260906050009 86 360 0.0 0.0 0.00 0.00 0.00 70 1016.4
20260906044508 86 360 0.0 0.0 0.00 0.00 0.00 69 1016.3
20260906043019 86 360 0.0 0.9 0.00 0.00 0.00 68 1016.1
20260906041507 86 360 0.0 0.0 0.00 0.00 0.00 68 1016.1
20260906040007 86 360 0.0 0.0 0.00 0.00 0.00 69 1016.1
20260906034507 87 360 0.0 0.9 0.00 0.00 0.00 68 1016.0
20260906033006 87 360 0.0 0.9 0.00 0.00 0.00 66 1016.2
20260906031508 87 360 0.0 0.0 0.00 0.00 0.00 65 1016.2
20260906030004 88 360 0.0 0.0 0.00 0.00 0.00 64 1016.2
20260906024507 88 360 0.0 0.0 0.00 0.00 0.00 63 1016.0
20260906023004 89 360 0.0 0.9 0.00 0.00 0.00 62 1015.6
20260906021506 89 360 0.0 0.9 0.00 0.00 0.00 61 1015.5
20260906020004 90 360 0.0 0.9 0.00 0.00 0.00 58 1015.2
20260906014512 91 360 0.0 0.9 0.00 0.00 0.00 56 1014.9
20260906013007 93 360 0.0 0.9 0.00 0.00 0.00 53 1014.6
20260906011502 95 360 0.0 0.9 0.00 0.00 0.00 46 1014.2
20260906010003 96 229 0.0 0.0 0.00 0.00 0.00 45 1014.1
20260906004502 97 360 0.0 0.9 0.00 0.00 0.00 44 1014.2
20260906003003 98 360 0.0 0.0 0.00 0.00 0.00 42 1014.1
20260906001601 99 360 0.0 0.0 0.00 0.00 0.00 42 1014.1
20260906000100 99 360 0.0 0.9 0.00 0.00 0.00 41 1013.9
20260905234602 100 360 0.0 0.9 0.00 0.00 0.00 40 1013.9
20260905233116 100 360 0.0 0.0 0.00 0.00 0.00 40 1013.8
20260905231559 100 360 0.0 0.9 0.00 0.00 0.00 40 1013.8